KC7NGC-B Weather Reports


time (UTC)temp
C
wind
direction
speed
KPH
gust
KPH
rain 1hr
cm
rain 24hr
cm
rain mn
cm
humidity
%
barometer
mb
20260901082653 17 298 4.8 4.8 0.00 0.00 0.00 1 1008.3
20260901081629 17 299 4.8 4.8 0.00 0.00 0.00 1 1008.4
20260901080705 17 274 3.2 6.4 0.00 0.00 0.00 1 1008.5
20260901075702 17 316 4.8 4.8 0.00 0.00 0.00 1 1008.5
20260901074639 17 292 3.2 3.2 0.00 0.00 0.00 1 1008.5
20260901073635 18 284 1.6 3.2 0.00 0.00 0.00 1 1008.5
20260901072631 18 304 4.8 6.4 0.00 0.00 0.00 1 1008.4
20260901071627 18 302 4.8 6.4 0.00 0.00 0.00 1 1008.5
20260901070623 18 287 3.2 4.8 0.00 0.00 0.00 1 1008.5
20260901065620 18 309 3.2 6.4 0.00 0.00 0.00 1 1008.5
20260901064617 18 317 4.8 6.4 0.00 0.00 0.00 1 1008.4
20260901063634 19 322 4.8 6.4 0.00 0.00 0.00 1 1008.7
20260901062630 20 342 4.8 6.4 0.00 0.00 0.00 1 1008.7
20260901061627 20 316 4.8 6.4 0.00 0.00 0.00 1 1008.7
20260901060625 21 318 4.8 6.4 0.00 0.00 0.00 1 1008.7
20260901055620 21 339 6.4 8.0 0.00 0.00 0.00 1 1008.7
20260901054637 22 346 4.8 6.4 0.00 0.00 0.00 1 1008.8
20260901053714 22 355 4.8 6.4 0.00 0.00 0.00 1 1008.9
20260901052630 22 350 6.4 6.4 0.00 0.00 0.00 1 1009.0
20260901051627 22 356 3.2 4.8 0.00 0.00 0.00 1 1009.0
20260901050624 22 345 3.2 3.2 0.00 0.00 0.00 1 1009.1
20260901045620 22 337 3.2 4.8 0.00 0.00 0.00 1 1009.1
20260901044616 22 332 3.2 4.8 0.00 0.00 0.00 1 1009.2
20260901043633 22 339 6.4 8.0 0.00 0.00 0.00 1 1009.1
20260901042630 22 321 4.8 6.4 0.00 0.00 0.00 1 1009.1
20260901041708 23 324 4.8 6.4 0.00 0.00 0.00 1 1009.0
20260901040624 23 328 4.8 8.0 0.00 0.00 0.00 1 1009.0
20260901035620 22 332 8.0 11.3 0.00 0.00 0.00 1 1009.0
20260901034617 22 320 9.7 11.3 0.00 0.00 0.00 1 1009.1
20260901033633 23 326 8.0 11.3 0.00 0.00 0.00 1 1009.1
20260901032630 23 320 6.4 8.0 0.00 0.00 0.00 1 1008.8
20260901031627 23 334 9.7 11.3 0.00 0.00 0.00 1 1008.9
20260901030624 23 336 8.0 9.7 0.00 0.00 0.00 1 1009.0
20260901025620 24 335 8.0 9.7 0.00 0.00 0.00 1 1008.9
20260901024636 24 337 8.0 9.7 0.00 0.00 0.00 1 1008.9
20260901023633 24 327 4.8 6.4 0.00 0.00 0.00 1 1008.9
20260901022630 25 318 4.8 4.8 0.00 0.00 0.00 1 1009.1
20260901021627 26 344 4.8 6.4 0.00 0.00 0.00 1 1008.8
20260901020623 27 6 6.4 9.7 0.00 0.00 0.00 1 1008.9
20260901015620 28 359 8.0 9.7 0.00 0.00 0.00 1 1009.0
20260901014638 28 1 6.4 9.7 0.00 0.00 0.00 1 1009.1
20260901013634 28 4 8.0 9.7 0.00 0.00 0.00 1 1009.2
20260901012630 28 27 8.0 11.3 0.00 0.00 0.00 1 1009.3
20260901011627 29 10 9.7 12.9 0.00 0.00 0.00 1 1009.3
20260901010624 29 11 8.0 12.9 0.00 0.00 0.00 1 1009.6
20260901005620 29 15 11.3 16.1 0.00 0.00 0.00 1 1009.6
20260901004637 29 17 6.4 8.0 0.00 0.00 0.00 1 1009.7
20260901003634 29 19 11.3 17.7 0.00 0.00 0.00 1 1009.8
20260901002630 29 11 11.3 14.5 0.00 0.00 0.00 1 1009.9
20260901001627 28 9 8.0 11.3 0.00 0.00 0.00 1 1010.1
20260901000625 29 34 8.0 12.9 0.00 0.00 0.00 1 1010.3
20260831235619 29 42 8.0 11.3 0.00 0.00 0.00 1 1010.4
20260831234621 28 24 11.3 16.1 0.00 0.00 0.00 1 1010.6
20260831233633 28 37 6.4 9.7 0.00 0.00 0.00 1 1010.9
20260831232649 28 24 8.0 9.7 0.00 0.00 0.00 1 1011.0
20260831231625 28 22 8.0 11.3 0.00 0.00 0.00 1 1011.2
20260831230622 28 37 9.7 12.9 0.00 0.00 0.00 1 1011.2
20260831225619 27 26 11.3 16.1 0.00 0.00 0.00 1 1011.4
20260831224635 27 60 9.7 12.9 0.00 0.00 0.00 1 1011.6
20260831223632 27 51 9.7 12.9 0.00 0.00 0.00 1 1011.8
20260831222628 27 19 9.7 11.3 0.00 0.00 0.00 1 1011.8
20260831221625 27 52 9.7 12.9 0.00 0.00 0.00 1 1011.9
20260831220621 26 44 8.0 12.9 0.00 0.00 0.00 1 1012.2
20260831215621 27 52 8.0 11.3 0.00 0.00 0.00 1 1012.3
20260831214634 27 35 11.3 14.5 0.00 0.00 0.00 1 1012.4
20260831213630 26 52 6.4 9.7 0.00 0.00 0.00 1 1012.8
20260831212627 26 40 8.0 14.5 0.00 0.00 0.00 1 1012.8
20260831211704 26 55 9.7 12.9 0.00 0.00 0.00 1 1013.1
20260831210620 25 50 8.0 9.7 0.00 0.00 0.00 1 1013.3
20260831205636 25 36 9.7 14.5 0.00 0.00 0.00 1 1013.3
20260831204633 25 39 6.4 8.0 0.00 0.00 0.00 1 1013.6
20260831203630 25 41 6.4 12.9 0.00 0.00 0.00 1 1013.8
20260831202626 24 39 6.4 8.0 0.00 0.00 0.00 1 1013.9
20260831201623 24 29 4.8 6.4 0.00 0.00 0.00 1 1014.1
20260831200620 24 58 8.0 12.9 0.00 0.00 0.00 1 1014.3
20260831195616 23 60 11.3 14.5 0.00 0.00 0.00 1 1014.4
20260831194632 23 38 8.0 14.5 0.00 0.00 0.00 1 1014.7
20260831193629 23 33 9.7 14.5 0.00 0.00 0.00 1 1014.7
20260831192625 23 33 8.0 12.9 0.00 0.00 0.00 1 1015.0
20260831191643 22 63 8.0 12.9 0.00 0.00 0.00 1 1015.2
20260831190619 22 18 9.7 11.3 0.00 0.00 0.00 1 1015.3
20260831185636 22 27 9.7 11.3 0.00 0.00 0.00 1 1015.4
20260831184632 21 28 8.0 11.3 0.00 0.00 0.00 1 1015.7
20260831183629 21 42 4.8 9.7 0.00 0.00 0.00 1 1015.7
20260831182625 21 32 8.0 9.7 0.00 0.00 0.00 1 1015.9
20260831181622 21 52 8.0 12.9 0.00 0.00 0.00 1 1016.0
20260831180639 20 25 4.8 6.4 0.00 0.00 0.00 1 1016.1
20260831175635 20 12 8.0 11.3 0.00 0.00 0.00 1 1016.3
20260831174632 20 24 8.0 9.7 0.00 0.00 0.00 1 1016.3
20260831173629 20 43 6.4 9.7 0.00 0.00 0.00 1 1016.3
20260831172645 19 340 6.4 8.0 0.00 0.00 0.00 1 1016.3
20260831171622 19 340 3.2 4.8 0.00 0.00 0.00 1 1016.4
20260831170618 19 51 1.6 3.2 0.00 0.00 0.00 1 1016.8
20260831165635 18 0.0 1.6 0.00 0.00 0.00 1 1016.5
20260831164631 18 36 4.8 6.4 0.00 0.00 0.00 1 1016.9
20260831163628 18 86 1.6 4.8 0.00 0.00 0.00 1 1016.8
20260831162625 17 22 3.2 6.4 0.00 0.00 0.00 1 1016.9
20260831161621 17 66 4.8 6.4 0.00 0.00 0.00 1 1016.9
20260831160618 17 40 4.8 6.4 0.00 0.00 0.00 1 1017.0
20260831155634 17 35 6.4 9.7 0.00 0.00 0.00 1 1017.0
20260831154633 16 338 3.2 8.0 0.00 0.00 0.00 1 1017.0
20260831153628 16 16 3.2 4.8 0.00 0.00 0.00 1 1017.1
20260831152627 15 328 1.6 3.2 0.00 0.00 0.00 1 1017.0
20260831151620 15 322 3.2 4.8 0.00 0.00 0.00 1 1017.0
20260831150617 15 335 3.2 4.8 0.00 0.00 0.00 1 1016.9
20260831145654 15 340 4.8 6.4 0.00 0.00 0.00 1 1017.0
20260831144631 14 353 4.8 6.4 0.00 0.00 0.00 1 1016.9
20260831143649 14 337 4.8 6.4 0.00 0.00 0.00 1 1016.7
20260831142625 15 320 0.0 3.2 0.00 0.00 0.00 1 1016.6
20260831141621 13 0.0 3.2 0.00 0.00 0.00 1 1016.5
20260831140621 13 279 1.6 3.2 0.00 0.00 0.00 1 1016.6
20260831135635 12 264 1.6 4.8 0.00 0.00 0.00 1 1016.5
20260831134631 12 0.0 1.6 0.00 0.00 0.00 1 1016.6
20260831133629 12 251 6.4 8.0 0.00 0.00 0.00 1 1016.6
20260831132645 11 207 3.2 6.4 0.00 0.00 0.00 1 1016.6
20260831131621 11 221 1.6 3.2 0.00 0.00 0.00 1 1016.5
20260831130618 12 180 3.2 4.8 0.00 0.00 0.00 1 1016.3
20260831125636 12 97 1.6 3.2 0.00 0.00 0.00 1 1016.3
20260831124631 12 295 1.6 4.8 0.00 0.00 0.00 1 1016.4
20260831123628 12 0.0 1.6 0.00 0.00 0.00 1 1016.4
20260831122625 12 276 0.0 1.6 0.00 0.00 0.00 1 1016.3
20260831121641 12 250 1.6 3.2 0.00 0.00 0.00 1 1016.3
20260831120619 12 277 3.2 3.2 0.00 0.00 0.00 1 1016.3
20260831115634 12 218 3.2 4.8 0.00 0.00 0.00 1 1016.3
20260831114652 12 252 1.6 3.2 0.00 0.00 0.00 1 1016.2
20260831113629 13 213 3.2 4.8 0.00 0.00 0.00 1 1016.4
20260831112625 13 238 3.2 3.2 0.00 0.00 0.00 1 1016.4
20260831111622 12 227 1.6 3.2 0.00 0.00 0.00 1 1016.3
20260831110619 12 270 1.6 1.6 0.00 0.00 0.00 1 1016.4
20260831105620 13 246 1.6 3.2 0.00 0.00 0.00 1 1016.4
20260831104617 13 238 1.6 3.2 0.00 0.00 0.00 1 1016.2
20260831103633 13 240 3.2 3.2 0.00 0.00 0.00 1 1016.3
20260831102630 13 217 4.8 4.8 0.00 0.00 0.00 1 1016.3
20260831101627 13 261 3.2 3.2 0.00 0.00 0.00 1 1016.2
20260831100623 13 233 3.2 3.2 0.00 0.00 0.00 1 1016.3
20260831095620 13 226 1.6 3.2 0.00 0.00 0.00 1 1016.6
20260831094656 13 290 1.6 3.2 0.00 0.00 0.00 1 1016.6
20260831093633 13 276 1.6 3.2 0.00 0.00 0.00 1 1016.7
20260831092629 13 283 0.0 1.6 0.00 0.00 0.00 1 1016.8
20260831091626 13 265 1.6 3.2 0.00 0.00 0.00 1 1016.7
20260831090622 14 282 1.6 3.2 0.00 0.00 0.00 1 1016.7
20260831085620 14 268 1.6 3.2 0.00 0.00 0.00 1 1016.8
20260831084636 14 0.0 1.6 0.00 0.00 0.00 1 1016.9
20260831083633 15 265 1.6 3.2 0.00 0.00 0.00 1 1016.9